STARLETTE 1 07646U 75010A 10067.77815742 -.00000164 +00000-0 -18146-4 0 02205 2 07646 049.8266 166.6444 0205535 226.7107 131.6476 13.82272925772281 LAGEOS 1 1 08820U 76039A 10067.71652800 +.00000003 +00000-0 +10000-3 0 09241 2 08820 109.8581 303.0419 0044494 135.6207 224.8148 06.38664827533933 EGS (AJISAI) 1 16908U 86061A 10067.98724796 -.00000083 +00000-0 +10000-3 0 01832 2 16908 050.0099 064.8242 0011551 171.1566 188.9474 12.44463982740572 LAGEOS 2 1 22195U 92070B 10067.89789137 -.00000009 +00000-0 +10000-3 0 01359 2 22195 052.6544 063.5504 0138852 108.6742 252.8947 06.47294266410801 STELLA 1 22824U 93061B 10067.81283025 +.00000013 +00000-0 +22778-4 0 05114 2 22824 098.5133 013.6220 0005390 239.3052 120.7624 14.27286929856937 WESTPAC 1 25398U 98043E 10067.91342282 -.00000033 +00000-0 +31773-5 0 07582 2 25398 098.3203 079.5931 0001898 132.4060 227.7270 14.22679815605654 GRACE 1 1 27391U 02012A 10067.79579143 +.00001071 +00000-0 +30855-4 0 04366 2 27391 089.0196 327.7301 0017040 147.3396 212.8899 15.34548633445885 GRACE 2 1 27392U 02012B 10067.73022290 +.00001014 +00000-0 +29135-4 0 04363 2 27392 089.0189 327.7560 0018012 150.1001 210.1250 15.34547315445877